This is the latest recevied weather packets stored in our database for station/object KB0BS-13. If no packets are shown the sender has not sent any weather packets the latest 10 day(s).
| Time | Temp. | Humidity | Pressure | Rain* | Wind** | Luminosity | Snow |
|---|---|---|---|---|---|---|---|
| 1778125349 | -0.56° C | 91% | 1014.5 hPa | 0 mm | - | 0 W/m² | - |
| 1778125047 | 0° C | 90% | 1014.1 hPa | 0 mm | - | 0 W/m² | - |
| 1778124745 | 0° C | 90% | 1014.4 hPa | 0 mm | - | 0 W/m² | - |
| 1778124442 | -0.56° C | 92% | 1014.3 hPa | 0 mm | - | 0 W/m² | - |
| 1778124138 | 0° C | 90% | 1014.5 hPa | 0 mm | - | 0 W/m² | - |
| 1778123835 | 0° C | 90% | 1014.6 hPa | 0 mm | - | 0 W/m² | - |
| 1778123531 | 0.56° C | 91% | 1014.4 hPa | 0 mm | - | 0 W/m² | - |
| 1778123228 | 1.11° C | 83% | 1014.6 hPa | 0 mm | - | 0 W/m² | - |
| 1778122926 | 1.11° C | 85% | 1014.4 hPa | 0 mm | - | 0 W/m² | - |
| 1778122623 | 1.11° C | 87% | 1014.5 hPa | 0 mm | - | 0 W/m² | - |
| 1778122320 | 1.67° C | 86% | 1014.4 hPa | 0 mm | - | 0 W/m² | - |
| 1778122018 | 1.67° C | 85% | 1014.3 hPa | 0 mm | - | 0 W/m² | - |
| 1778121715 | 1.67° C | 82% | 1014.4 hPa | 0 mm | - | 0 W/m² | - |
| 1778121410 | 1.67° C | 82% | 1014.4 hPa | 0 mm | - | 0 W/m² | - |
| 1778121108 | 1.67° C | 80% | 1014.5 hPa | 0 mm | - | 0 W/m² | - |
| 1778120805 | 1.67° C | 83% | 1014.4 hPa | 0 mm | - | 0 W/m² | - |
| 1778120500 | 1.67° C | 84% | 1014.2 hPa | 0 mm | - | 0 W/m² | - |
| 1778120197 | 1.67° C | 85% | 1014.3 hPa | 0 mm | - | 0 W/m² | - |
| 1778119892 | 1.67° C | 83% | 1014.1 hPa | 0 mm | - | 0 W/m² | - |
| 1778119591 | 1.67° C | 86% | 1014.1 hPa | 0 mm | - | 0 W/m² | - |
| 1778119287 | 1.67° C | 81% | 1014.4 hPa | 0 mm | - | 0 W/m² | - |
| 1778118985 | 1.67° C | 86% | 1014.2 hPa | 0 mm | - | 0 W/m² | - |
| 1778118682 | 1.67° C | 82% | 1014.2 hPa | 0 mm | - | 0 W/m² | - |
| 1778118379 | 1.67° C | 81% | 1014.3 hPa | 0 mm | - | 0 W/m² | - |
| 1778118075 | 1.67° C | 79% | 1014.2 hPa | 0 mm | - | 0 W/m² | - |
* Rain latest hour (hover to see other rain measurements)
** Current wind speed in m/s (hover to see current wind gust speed)